Regional Weather Roundup
Issued by NWS

Home | Current Version | Previous Version | Text Only | Print | Product List | Glossary Off
Versions: 1 2 3 4 5 6 7 8 9 10 11 12 13 14 15 16 17 18 19 20 21 22 23 24 25 26 27 28 29 30 31 32 33 34 35 36 37 38 39 40 41 42 43 44 45 46 47 48 49 50

000
ASUS43 KIND 261109
RWRIN

WEATHER ROUNDUP FOR INDIANA
NATIONAL WEATHER SERVICE INDIANAPOLIS IN
600 AM EST WED NOV 26 2014

NOTE: "FAIR" INDICATES FEW OR NO CLOUDS BELOW 12,000 FEET WITH NO
SIGNIFICANT WEATHER AND/OR OBSTRUCTIONS TO VISIBILITY.

* - STATION DOES NOT REPORT WEATHER SUCH AS PRECIPITATION OR FOG.

+ - STATION NOT QUALITY CONTROLLED BY THE NATIONAL WEATHER SERVICE.
    USE DATA WITH CAUTION...ESPECIALLY DEWPOINT AND RELATIVE
    HUMIDITY OBSERVATIONS.

INZ001>003-010>013-019-020-261200-
NORTHWEST INDIANA

CITY           SKY/WX    TMP DP  RH WIND       PRES   REMARKS
GARY /AIRPORT/ CLOUDY    25  19  80 SE7       30.16F WCI  17
KNOX *+        CLOUDY    24  19  83 CALM      30.15F
LA PORTE +     CLOUDY    25  21  86 E6        30.16F WCI  18
MICHIGAN CITY+ CLOUDY    25  19  80 NE6       30.17F WCI  18
MONTICELLO +   CLOUDY    24  20  84 E3        30.15F
RENSSELAER +   CLOUDY    27  23  86 E6        30.15F WCI  20
VALPARAISO     CLOUDY    23  18  81 NE6       30.15F WCI  16

$$

LMZ046-743>745-261200-
SOUTHERN LAKE MICHIGAN

STATION/POSITION TIME  TEMP WIND        PRES
                       AIR  DIR/SP/G
                 (UTC) (F)  (DEG/KT/KT) (MB)
MICHIGAN CITY    1100   23  100/  3/  4   N/A

$$

INZ004-005-014>016-021>024-261200-
NORTH CENTRAL INDIANA

CITY           SKY/WX    TMP DP  RH WIND       PRES   REMARKS
GOSHEN         CLOUDY    25  18  74 E6        30.16F WCI  18
LOGANSPORT +   CLOUDY    25  19  80 E6        30.16S WCI  18
PERU/GRISSOM   CLOUDY    24  24  98 NE6       30.14F WCI  17
ROCHESTER +    CLOUDY    27  23  86 CALM      30.16F
SOUTH BEND     CLOUDY    25  19  78 NE3       30.17F
WARSAW +       CLOUDY    25  21  86 NE5       30.15F WCI  19

$$

INZ006>009-017-018-025>027-261200-
NORTHEAST INDIANA

CITY           SKY/WX    TMP DP  RH WIND       PRES   REMARKS
ANGOLA *+      CLOUDY    25  19  80 E6        30.15F WCI  18
AUBURN +       CLOUDY    28  21  74 E3        30.17S
FORT WAYNE     CLOUDY    25  19  78 N7        30.17S WCI  17
HUNTINGTON +   CLOUDY    25  21  86 CALM      30.15F

$$

INZ028-029-035-036-043>045-051>053-261200-
WEST CENTRAL INDIANA

CITY           SKY/WX    TMP DP  RH WIND       PRES   REMARKS
GREENCASTLE +  CLOUDY    25  21  86 CALM      30.14S
LAFAYETTE      CLOUDY    24  20  84 E6        30.15S WCI  17
TERRE HAUTE    PTCLDY    22  18  85 E5        30.14F WCI  16

$$

INZ030>032-037>040-046>048-054>057-064-065-261200-
CENTRAL INDIANA

CITY           SKY/WX    TMP DP  RH WIND       PRES   REMARKS
CP ATTERBURY + CLOUDY    30  25  80 CALM      30.14S
FRANKFORT +    CLOUDY    25  22  88 NE5       30.15F WCI  19
INDIANAPOLIS   CLOUDY    26  20  77 NE6       30.12F WCI  19
-EAGLE CREEK   CLOUDY    25  20  81 SE3       30.13F
KOKOMO *+      CLOUDY    25  19  80 E3        30.15S
MARION +         N/A     25  20  83 NE5       30.15S HAZE    WCI  19
MT COMFORT *+  CLOUDY    27  19  74 E5        30.13F WCI  21
SHELBYVILLE    CLOUDY    29  22  75 E5        30.12F WCI  24
ZIONSVILLE +   CLOUDY    26  20  79 E3        30.14S

$$

INZ033-034-041-042-049-050-058-059-261200-
EAST CENTRAL INDIANA

CITY           SKY/WX    TMP DP  RH WIND       PRES   REMARKS
MUNCIE         CLOUDY    27  22  81 NE6       30.13F WCI  20

$$

INZ060-061-067>069-081>083-085>088-261200-
SOUTHWEST INDIANA

CITY           SKY/WX    TMP DP  RH WIND       PRES   REMARKS
EVANSVILLE     CLEAR     25  21  85 NE3       30.15F
HUNTINGBURG *+ CLOUDY    25  21  86 NE3       30.14F
WASHINGTON +   CLOUDY    29  25  85 CALM      30.14F

$$

INZ062-063-066-070>080-084-089>092-261200-
SOUTH CENTRAL AND SOUTHEAST INDIANA

CITY           SKY/WX    TMP DP  RH WIND       PRES   REMARKS
BLOOMINGTON    CLOUDY    27  22  81 E5        30.13S WCI  22
NORTH VERNON + CLOUDY    28  28 100 N3        30.13S
SEYMOUR +      CLOUDY    32  27  80 N5        30.13  WCI  27

$$



USA.gov is the U.S. government's official web portal to all federal, state and local government web resources and services.